Orbital Elements at Epoch 2459200.5 (2020-Dec-17.0) TDB
Reference: JPL 13 (heliocentric ecliptic J2000)
Element | Value | Uncertainty (1-sigma) | Units |
e | .1808333607659531 | 3.9368e-08 | |
a | 2.344657086442223 | 1.0072e-08 | au |
q | 1.920664865657168 | 8.9286e-08 | au |
i | 3.421193622166303 | 3.9837e-06 | deg |
node | 47.27720983351335 | 8.5382e-05 | deg |
peri | 4.066808808849159 | 8.6831e-05 | deg |
M | 53.57412261890312 | 1.5438e-05 | deg |
tp | 2459005.349352956241 (2020-Jun-04.84935296) | 5.5745e-05 | TDB |
period | 1311.346401984094 3.59 | 8.4495e-06 2.313e-08 | d yr |
n | .2745270048061386 | 1.7689e-09 | deg/d |
Q | 2.768649307227279 | 1.1893e-08 | au |
|
| | Orbit Determination Parameters
Additional Information
|